Time,TemperatureF,DewpointF,PressureIn,WindDirection,WindDirectionDegrees,WindSpeedMPH,WindSpeedGustMPH,Humidity,HourlyPrecipIn,Conditions,Clouds,dailyrainin,SolarRadiationWatts/m^2,SoftwareType,DateUTC
2013-09-07 01:00:00,46.0,43.0,-100.00,West,275,1.0,3.0,92,-99.99,,,0.00,-0.200000,,2013-09-07 08:00:00,
2013-09-07 01:53:00,46.0,43.0,-100.00,West,275,1.0,3.0,92,-99.99,,,0.00,-0.200000,,2013-09-07 08:53:00,
2013-09-07 02:00:00,45.0,43.0,-100.00,WNW,293,0.0,1.0,92,-99.99,,,0.00,-0.200000,,2013-09-07 09:00:00,
2013-09-07 02:52:00,45.0,43.0,-100.00,WNW,293,0.0,1.0,92,-99.99,,,0.00,-0.200000,,2013-09-07 09:52:00,
2013-09-07 03:00:00,45.0,43.0,-100.00,WNW,301,0.0,1.0,91,-99.99,,,0.00,-0.200000,,2013-09-07 10:00:00,
2013-09-07 03:51:00,45.0,43.0,-100.00,WNW,301,0.0,1.0,91,-99.99,,,0.00,-0.200000,,2013-09-07 10:51:00,
2013-09-07 07:00:00,47.0,44.0,-100.00,West,280,0.0,1.0,90,-99.99,,,0.00,5.100000,,2013-09-07 14:00:00,
2013-09-07 07:52:00,47.0,44.0,-100.00,West,280,0.0,1.0,90,-99.99,,,0.00,5.100000,,2013-09-07 14:52:00,
2013-09-07 08:00:00,49.0,45.0,-100.00,ENE,75,0.0,1.0,89,-99.99,,,-99.99,55.200001,,2013-09-07 15:00:00,
2013-09-07 08:54:00,49.0,45.0,-100.00,ENE,75,0.0,1.0,89,-99.99,,,-99.99,55.200001,,2013-09-07 15:54:00,
2013-09-07 09:00:00,51.0,47.0,-100.00,East,81,1.0,2.0,88,-99.99,,,0.01,218.699997,,2013-09-07 16:00:00,
2013-09-07 09:53:00,51.0,47.0,-100.00,East,81,1.0,2.0,88,-99.99,,,0.01,218.699997,,2013-09-07 16:53:00,
2013-09-07 10:00:00,49.0,47.0,-100.00,SE,140,1.0,2.0,93,-99.99,,,0.01,132.500000,,2013-09-07 17:00:00,
2013-09-07 10:52:00,49.0,47.0,-100.00,SE,140,1.0,2.0,93,-99.99,,,0.01,132.500000,,2013-09-07 17:52:00,
2013-09-07 11:00:00,49.0,48.0,-100.00,North,8,0.0,2.0,95,-99.99,,,0.01,79.800003,,2013-09-07 18:00:00,
2013-09-07 11:52:00,49.0,48.0,-100.00,North,8,0.0,2.0,95,-99.99,,,0.01,79.800003,,2013-09-07 18:52:00,
2013-09-07 12:00:00,49.0,47.0,-100.00,East,90,0.0,1.0,94,-99.99,,,0.00,74.099998,,2013-09-07 19:00:00,
2013-09-07 12:52:00,49.0,47.0,-100.00,East,90,0.0,1.0,94,-99.99,,,0.00,74.099998,,2013-09-07 19:52:00,
2013-09-07 13:00:00,49.0,48.0,-100.00,ESE,118,1.0,3.0,98,-99.99,,,0.00,47.299999,,2013-09-07 20:00:00,
2013-09-07 13:53:00,49.0,48.0,-100.00,ESE,118,1.0,3.0,98,-99.99,,,0.00,47.299999,,2013-09-07 20:53:00,
2013-09-07 14:00:00,50.0,49.0,-100.00,ESE,120,0.0,2.0,96,-99.99,,,0.00,123.300003,,2013-09-07 21:00:00,
2013-09-07 14:54:00,50.0,49.0,-100.00,ESE,120,0.0,2.0,96,-99.99,,,0.00,123.300003,,2013-09-07 21:54:00,
2013-09-07 15:00:00,51.0,47.0,-100.00,SSE,164,1.0,3.0,89,-99.99,,,0.00,130.300003,,2013-09-07 22:00:00,
2013-09-07 15:53:00,51.0,47.0,-100.00,SSE,164,1.0,3.0,89,-99.99,,,0.00,130.300003,,2013-09-07 22:53:00,
2013-09-07 16:00:00,49.0,46.0,-100.00,SE,140,1.0,3.0,88,-99.99,,,0.00,79.300003,,2013-09-07 23:00:00,
2013-09-07 16:53:00,49.0,46.0,-100.00,SE,140,1.0,3.0,88,-99.99,,,0.00,79.300003,,2013-09-07 23:53:00,
2013-09-07 17:00:00,51.0,49.0,-100.00,NW,307,1.0,3.0,93,-99.99,,,0.00,129.000000,,2013-09-08 00:00:00,
2013-09-07 17:52:00,51.0,49.0,-100.00,NW,307,1.0,3.0,93,-99.99,,,0.00,129.000000,,2013-09-08 00:52:00,
2013-09-07 19:00:00,50.0,47.0,-100.00,SW,220,1.0,2.0,88,-99.99,,,0.00,61.799999,,2013-09-08 02:00:00,
2013-09-07 19:52:00,50.0,47.0,-100.00,SW,220,1.0,2.0,88,-99.99,,,0.00,61.799999,,2013-09-08 02:52:00,
2013-09-07 20:00:00,-999.0,-99.9,-100.00,WSW,247,1.0,3.0,-999,-99.99,,,-99.99,,,2013-09-08 03:00:00,
2013-09-07 20:54:00,49.0,46.0,-100.00,WSW,247,1.0,3.0,90,-99.99,,,0.00,5.500000,,2013-09-08 03:54:00,
2013-09-07 21:00:00,50.0,47.0,-100.00,NW,321,3.0,6.0,88,-99.99,,,0.00,12.100000,,2013-09-08 04:00:00,
2013-09-07 21:54:00,50.0,47.0,-100.00,NW,321,3.0,6.0,88,-99.99,,,0.00,12.100000,,2013-09-08 04:54:00,
2013-09-07 22:00:00,49.0,45.0,-100.00,WNW,291,2.0,4.0,85,-99.99,,,0.00,-0.200000,,2013-09-08 05:00:00,
2013-09-07 22:52:00,49.0,45.0,-100.00,WNW,291,2.0,4.0,85,-99.99,,,0.00,-0.200000,,2013-09-08 05:52:00,
2013-09-07 23:00:00,49.0,46.0,-100.00,NW,315,3.0,4.0,88,-99.99,,,0.00,-0.200000,,2013-09-08 06:00:00,
2013-09-07 23:53:00,49.0,46.0,-100.00,NW,315,3.0,4.0,88,-99.99,,,0.00,-0.200000,,2013-09-08 06:53:00,